CW3699 Weather Reports


Display with metric or nautical units.
time (UTC)temp
F
wind
direction
speed
MPH
gust
MPH
rain 1hr
in
rain 24hr
in
rain mn
in
humidity
%
barometer
mb
20260509200914 56 313 3.0 9.0 0.00 0.00 0.00 54 1001.0
20260509200412 56 290 3.0 9.0 0.00 0.00 0.00 53 1001.0
20260509195914 55 354 3.0 10.0 0.00 0.00 0.00 54 1000.9
20260509195412 55 294 3.0 7.0 0.00 0.00 0.00 55 1000.8
20260509194914 54 328 3.0 14.0 0.00 0.00 0.00 57 1000.7
20260509194415 54 325 3.0 12.0 0.00 0.00 0.00 59 1000.6
20260509193912 54 325 4.0 8.0 0.00 0.00 0.00 57 1000.5
20260509192913 55 333 4.0 6.0 0.00 0.00 0.00 57 1000.4
20260509192414 55 322 3.0 6.0 0.00 0.00 0.00 58 1000.3
20260509191915 55 333 5.0 8.0 0.00 0.00 0.00 55 1000.2
20260509191414 56 338 5.0 8.0 0.00 0.00 0.00 54 1000.1
20260509190914 57 344 4.0 7.0 0.00 0.00 0.00 53 999.9
20260509190412 57 333 3.0 7.0 0.00 0.00 0.00 53 999.9
20260509185913 57 335 2.0 7.0 0.00 0.00 0.00 55 999.8
20260509185414 56 291 2.0 8.0 0.00 0.00 0.00 58 999.8
20260509184914 56 318 2.0 7.0 0.00 0.00 0.00 61 999.7
20260509184414 57 333 3.0 7.0 0.00 0.00 0.00 60 999.5
20260509183914 57 310 3.0 5.0 0.00 0.00 0.00 61 999.3
20260509183415 56 289 3.0 7.0 0.00 0.00 0.00 63 999.3
20260509182914 55 300 3.0 9.0 0.00 0.00 0.00 66 999.3
20260509182413 54 263 2.0 8.0 0.00 0.00 0.00 65 999.3
20260509181912 54 259 3.0 14.0 0.00 0.00 0.00 65 999.1
20260509180912 54 323 2.0 5.0 0.00 0.00 0.00 67 999.0
20260509180416 54 10 3.0 12.0 0.00 0.00 0.00 67 998.9
20260509175914 54 348 2.0 6.0 0.00 0.00 0.00 67 998.8
20260509175413 54 323 2.0 3.0 0.00 0.00 0.00 68 998.6
20260509174912 53 323 2.0 5.0 0.00 0.00 0.00 68 998.5
20260509173414 52 266 1.0 3.0 0.00 0.00 0.00 71 998.4
20260509172912 52 347 2.0 3.0 0.00 0.00 0.00 72 998.4
20260509172414 52 327 2.0 3.0 0.00 0.00 0.00 71 998.2
20260509171913 52 355 2.0 3.0 0.00 0.00 0.00 69 998.2
20260509171412 53 357 2.0 3.0 0.00 0.00 0.00 67 998.2
20260509170416 58 336 3.0 5.0 0.00 0.00 0.00 59 998.1
20260509165912 60 341 2.0 7.0 0.00 0.00 0.00 56 997.9
20260509165411 60 290 3.0 7.0 0.00 0.00 0.00 52 997.8
20260509164913 60 288 3.0 8.0 0.00 0.00 0.00 53 997.7
20260509164415 60 272 2.0 12.0 0.00 0.00 0.00 55 997.7
20260509163416 57 275 3.0 12.0 0.00 0.00 0.00 58 997.8
20260509162414 55 250 5.0 13.0 0.00 0.00 0.00 64 997.7
20260509161912 53 231 7.0 16.0 0.00 0.00 0.00 70 997.7
20260509161412 51 235 5.0 15.0 0.00 0.00 0.00 74 997.8
20260509160912 51 47 3.0 5.0 0.00 0.00 0.00 73 997.8
20260509155912 50 16 2.0 3.0 0.00 0.00 0.00 72 997.8
20260509155412 50 8 2.0 3.0 0.00 0.00 0.00 73 997.8
20260509154912 50 38 2.0 3.0 0.00 0.00 0.00 71 997.7
20260509154412 51 62 2.0 3.0 0.00 0.00 0.00 68 997.7
20260509153413 52 27 2.0 3.0 0.00 0.00 0.00 63 997.8
20260509152911 54 27 4.0 7.0 0.00 0.00 0.00 63 997.7
20260509152414 56 8 3.0 7.0 0.00 0.00 0.00 63 997.4
20260509151911 58 91 1.0 3.0 0.00 0.00 0.00 60 997.3
20260509151411 59 79 2.0 8.0 0.00 0.00 0.00 56 997.1
20260509150912 60 225 3.0 7.0 0.00 0.00 0.00 56 996.9
20260509150414 60 352 3.0 7.0 0.00 0.00 0.00 59 996.9
20260509145914 60 288 2.0 9.0 0.00 0.00 0.00 59 996.8
20260509145413 60 174 3.0 9.0 0.00 0.00 0.00 59 996.9
20260509144412 60 248 3.0 10.0 0.00 0.00 0.00 58 996.9
20260509143914 61 250 6.0 12.0 0.00 0.00 0.00 58 996.9
20260509143413 60 259 2.0 8.0 0.00 0.00 0.00 57 996.8
20260509142913 60 255 2.0 6.0 0.00 0.00 0.00 57 996.8
20260509142413 60 181 3.0 9.0 0.00 0.00 0.00 57 996.7
20260509141912 60 199 3.0 7.0 0.00 0.00 0.00 57 996.7
20260509140912 60 255 6.0 13.0 0.00 0.00 0.00 56 996.9
20260509140414 60 246 3.0 12.0 0.00 0.00 0.00 56 997.0
20260509135911 59 183 5.0 15.0 0.00 0.00 0.00 57 997.0
20260509135413 59 246 3.0 8.0 0.00 0.00 0.00 57 997.0
20260509134913 59 240 5.0 10.0 0.00 0.00 0.00 56 997.1
20260509133414 57 211 3.0 8.0 0.00 0.00 0.00 57 997.4
20260509132914 57 250 3.0 7.0 0.00 0.00 0.00 57 997.4
20260509132412 57 218 5.0 12.0 0.00 0.00 0.00 56 997.3
20260509131413 56 224 5.0 10.0 0.00 0.00 0.00 57 997.3
20260509130914 56 213 4.0 10.0 0.00 0.00 0.00 57 997.3
20260509130414 55 216 5.0 10.0 0.00 0.00 0.00 57 997.4
20260509125913 54 184 4.0 12.0 0.00 0.00 0.00 57 997.4
20260509125413 54 185 5.0 9.0 0.00 0.00 0.00 57 997.3
20260509124911 54 166 4.0 10.0 0.00 0.00 0.00 58 997.3
20260509124411 53 176 3.0 7.0 0.00 0.00 0.00 58 997.5
20260509123912 53 179 5.0 8.0 0.00 0.00 0.00 58 997.5
20260509123414 53 193 3.0 6.0 0.00 0.00 0.00 58 997.5
20260509122913 52 167 3.0 9.0 0.00 0.00 0.00 58 997.5
20260509122413 52 204 3.0 9.0 0.00 0.00 0.00 58 997.5
20260509121912 52 162 4.0 7.0 0.00 0.00 0.00 57 997.4
20260509121412 52 158 3.0 8.0 0.00 0.00 0.00 57 997.6
20260509120414 51 186 4.0 9.0 0.00 0.00 0.00 56 997.7
20260509115914 51 155 5.0 9.0 0.00 0.00 0.00 55 997.7
20260509115412 51 173 4.0 7.0 0.00 0.00 0.00 55 997.8
20260509114914 51 159 5.0 8.0 0.00 0.00 0.00 54 997.9
20260509113914 51 168 5.0 7.0 0.00 0.00 0.00 53 997.8
20260509113413 51 171 4.0 7.0 0.00 0.00 0.00 54 997.8
20260509112912 50 165 4.0 7.0 0.00 0.00 0.00 54 997.9
20260509112413 50 173 3.0 7.0 0.00 0.00 0.00 54 998.0
20260509111912 50 173 5.0 10.0 0.00 0.00 0.00 55 998.2
20260509110912 49 167 4.0 7.0 0.00 0.00 0.00 55 998.2
20260509110414 49 188 4.0 7.0 0.00 0.00 0.00 55 998.2
20260509105912 49 177 4.0 8.0 0.00 0.00 0.00 55 998.4
20260509105413 49 171 3.0 6.0 0.00 0.00 0.00 55 998.4
20260509104413 49 176 4.0 8.0 0.00 0.00 0.00 55 998.5
20260509103912 49 175 4.0 9.0 0.00 0.00 0.00 55 998.4
20260509103414 49 172 4.0 10.0 0.00 0.00 0.00 55 998.4
20260509102914 48 179 3.0 8.0 0.00 0.00 0.00 55 998.5
20260509102413 48 170 5.0 7.0 0.00 0.00 0.00 55 998.7
20260509101911 48 172 4.0 8.0 0.00 0.00 0.00 55 998.8
20260509101413 48 185 4.0 7.0 0.00 0.00 0.00 55 998.8
20260509100912 48 166 5.0 8.0 0.00 0.00 0.00 55 999.0
20260509100413 49 170 3.0 9.0 0.00 0.00 0.00 55 999.1
20260509095911 49 169 3.0 9.0 0.00 0.00 0.00 55 999.1
20260509095413 49 165 4.0 9.0 0.00 0.00 0.00 55 999.2
20260509094914 49 174 3.0 8.0 0.00 0.00 0.00 55 999.2
20260509094414 49 168 4.0 7.0 0.00 0.00 0.00 55 999.3
20260509093912 49 170 3.0 7.0 0.00 0.00 0.00 55 999.3
20260509093413 49 166 4.0 7.0 0.00 0.00 0.00 54 999.4
20260509092911 49 168 3.0 8.0 0.00 0.00 0.00 54 999.5
20260509092414 49 173 5.0 10.0 0.00 0.00 0.00 54 999.6
20260509091911 49 164 3.0 8.0 0.00 0.00 0.00 54 999.5
20260509091413 49 164 4.0 10.0 0.00 0.00 0.00 54 999.7
20260509090912 49 168 5.0 8.0 0.00 0.00 0.00 55 999.8
20260509090415 49 168 5.0 8.0 0.00 0.00 0.00 55 999.8
20260509085914 49 188 4.0 8.0 0.00 0.00 0.00 56 999.9
20260509085412 49 165 4.0 8.0 0.00 0.00 0.00 56 999.9
20260509084413 48 174 4.0 8.0 0.00 0.00 0.00 56 1000.1
20260509083913 48 165 3.0 7.0 0.00 0.00 0.00 57 1000.1
20260509083413 48 168 5.0 7.0 0.00 0.00 0.00 58 1000.2
20260509082913 47 168 4.0 9.0 0.00 0.00 0.00 59 1000.2
20260509081912 47 174 2.0 7.0 0.00 0.00 0.00 62 1000.4
20260509081412 46 150 3.0 7.0 0.00 0.00 0.00 63 1000.5
20260509080913 46 161 3.0 5.0 0.00 0.00 0.00 64 1000.6
20260509080412 46 154 3.0 5.0 0.00 0.00 0.00 64 1000.7
20260509075913 46 159 2.0 3.0 0.00 0.00 0.00 64 1000.7
20260509075412 46 191 3.0 5.0 0.00 0.00 0.00 63 1000.8
20260509074912 46 162 2.0 6.0 0.00 0.00 0.00 64 1000.9
20260509074413 46 154 3.0 6.0 0.00 0.00 0.00 63 1001.0
20260509073412 45 151 4.0 7.0 0.00 0.00 0.00 63 1001.1
20260509072913 45 153 3.0 6.0 0.00 0.00 0.00 63 1001.3
20260509072413 46 149 2.0 3.0 0.00 0.00 0.00 63 1001.4
20260509071911 46 152 3.0 5.0 0.00 0.00 0.00 62 1001.6
20260509071413 46 158 4.0 6.0 0.00 0.00 0.00 62 1001.6
20260509070913 46 154 3.0 5.0 0.00 0.00 0.00 61 1001.6
20260509070413 46 137 3.0 6.0 0.00 0.00 0.00 61 1001.7
20260509065413 46 160 3.0 7.0 0.00 0.00 0.00 62 1001.9
20260509064911 46 157 4.0 8.0 0.00 0.00 0.00 61 1002.0
20260509063911 46 161 4.0 7.0 0.00 0.00 0.00 61 1002.2
20260509063415 46 153 3.0 8.0 0.00 0.00 0.00 61 1002.3
20260509062913 46 147 4.0 7.0 0.00 0.00 0.00 61 1002.4
20260509062413 46 151 3.0 8.0 0.00 0.00 0.00 61 1002.4
20260509061413 46 161 6.0 10.0 0.00 0.00 0.00 61 1002.6
20260509060912 46 149 3.0 7.0 0.00 0.00 0.00 62 1002.8
20260509060413 46 149 3.0 6.0 0.00 0.00 0.00 62 1002.8
20260509054912 46 148 3.0 6.0 0.00 0.00 0.00 61 1003.2
20260509054413 46 147 3.0 5.0 0.00 0.00 0.00 62 1003.3
20260509053912 46 142 5.0 7.0 0.00 0.00 0.00 62 1003.4
20260509053413 46 150 3.0 7.0 0.00 0.00 0.00 63 1003.5
20260509052913 46 133 3.0 6.0 0.00 0.00 0.00 62 1003.6
20260509052413 46 119 3.0 5.0 0.00 0.00 0.00 64 1003.7
20260509051911 46 104 3.0 7.0 0.00 0.00 0.00 63 1003.9
20260509051411 46 131 4.0 8.0 0.00 0.00 0.00 62 1003.9
20260509050913 47 122 2.0 5.0 0.00 0.00 0.00 63 1004.0
20260509050414 47 122 2.0 3.0 0.00 0.00 0.00 61 1004.1
20260509045911 47 103 2.0 6.0 0.00 0.00 0.00 59 1004.3
20260509045413 47 130 2.0 3.0 0.00 0.00 0.00 59 1004.3
20260509044913 47 76 2.0 3.0 0.00 0.00 0.00 58 1004.3
20260509044411 47 97 1.0 3.0 0.00 0.00 0.00 58 1004.4
20260509043913 47 105 3.0 7.0 0.00 0.00 0.00 58 1004.4
20260509043411 47 117 2.0 3.0 0.00 0.00 0.00 58 1004.5
20260509042911 47 138 2.0 5.0 0.00 0.00 0.00 57 1004.5
20260509042413 47 142 2.0 6.0 0.00 0.00 0.00 58 1004.5
20260509041911 47 149 2.0 7.0 0.00 0.00 0.00 58 1004.6
20260509041413 47 153 2.0 7.0 0.00 0.00 0.00 58 1004.5
20260509040912 47 132 2.0 8.0 0.00 0.00 0.00 58 1004.7
20260509040412 47 141 2.0 6.0 0.00 0.00 0.00 58 1004.8
20260509035913 47 182 2.0 5.0 0.00 0.00 0.00 57 1004.8
20260509034913 47 144 3.0 6.0 0.00 0.00 0.00 57 1004.9
20260509034414 47 156 3.0 8.0 0.00 0.00 0.00 57 1004.9
20260509033912 47 157 3.0 7.0 0.00 0.00 0.00 57 1004.9
20260509032913 47 137 3.0 7.0 0.00 0.00 0.00 57 1004.9
20260509031912 47 126 3.0 9.0 0.00 0.00 0.00 57 1005.1
20260509031413 47 160 5.0 9.0 0.00 0.00 0.00 57 1005.1
20260509030913 47 166 5.0 10.0 0.00 0.00 0.00 56 1005.1
20260509030412 47 154 4.0 9.0 0.00 0.00 0.00 56 1005.1
20260509025911 47 158 4.0 12.0 0.00 0.00 0.00 57 1005.2
20260509024911 47 157 4.0 7.0 0.00 0.00 0.00 57 1005.3
20260509024411 47 135 4.0 9.0 0.00 0.00 0.00 56 1005.4
20260509023913 47 151 4.0 7.0 0.00 0.00 0.00 56 1005.4
20260509023412 47 149 4.0 9.0 0.00 0.00 0.00 57 1005.4
20260509022913 46 149 5.0 8.0 0.00 0.00 0.00 57 1005.4
20260509022411 46 156 5.0 9.0 0.00 0.00 0.00 57 1005.5
20260509021913 46 137 3.0 7.0 0.00 0.00 0.00 58 1005.5
20260509021411 46 152 5.0 13.0 0.00 0.00 0.00 58 1005.5
20260509020911 46 145 5.0 10.0 0.00 0.00 0.00 58 1005.5
20260509015913 45 158 3.0 9.0 0.00 0.00 0.00 58 1005.6
20260509015411 45 178 4.0 7.0 0.00 0.00 0.00 59 1005.6
20260509014413 45 152 3.0 7.0 0.00 0.00 0.00 60 1005.6
20260509013911 45 156 3.0 6.0 0.00 0.00 0.00 60 1005.5
20260509013413 45 149 3.0 5.0 0.00 0.00 0.00 61 1005.6
20260509012913 45 133 3.0 5.0 0.00 0.00 0.00 61 1005.5
20260509010913 46 144 2.0 6.0 0.00 0.00 0.00 66 1005.4
20260509010412 46 154 2.0 3.0 0.00 0.00 0.00 66 1005.4
20260509005913 46 83 2.0 3.0 0.00 0.00 0.00 67 1005.4
20260509005413 46 151 1.0 3.0 0.00 0.00 0.00 66 1005.4
20260509004913 46 111 2.0 5.0 0.00 0.00 0.00 67 1005.4
20260509004412 47 118 2.0 3.0 0.00 0.00 0.00 66 1005.4
20260509003912 47 138 2.0 3.0 0.00 0.00 0.00 65 1005.5
20260509003411 47 140 2.0 3.0 0.00 0.00 0.00 66 1005.5
20260509002913 48 124 1.0 3.0 0.00 0.00 0.00 66 1005.5
20260509002413 48 96 2.0 6.0 0.00 0.00 0.00 66 1005.5
20260509001411 50 73 3.0 6.0 0.00 0.00 0.00 65 1005.5
20260509000913 50 52 2.0 3.0 0.00 0.00 0.00 58 1005.4
20260509000413 51 77 2.0 3.0 0.00 0.00 0.00 56 1005.5
20260508235913 51 68 2.0 3.0 0.00 0.00 0.00 55 1005.5
20260508235412 51 98 2.0 3.0 0.00 0.00 0.00 56 1005.4
20260508234413 51 67 1.0 3.0 0.00 0.00 0.00 58 1005.6
20260508233912 51 51 2.0 3.0 0.00 0.00 0.00 58 1005.5
20260508233412 51 72 2.0 3.0 0.00 0.00 0.00 56 1005.5
20260508232911 51 95 2.0 3.0 0.00 0.00 0.00 57 1005.6
20260508232412 51 84 1.0 3.0 0.00 0.00 0.00 55 1005.6
20260508231911 51 83 2.0 7.0 0.00 0.00 0.00 54 1005.6
20260508230912 51 59 2.0 8.0 0.00 0.00 0.00 53 1005.7
20260508225911 50 65 1.0 3.0 0.00 0.00 0.00 54 1005.8
20260508225412 50 95 3.0 5.0 0.00 0.00 0.00 55 1005.8
20260508224913 50 85 3.0 6.0 0.00 0.00 0.00 56 1005.8
20260508224413 50 74 2.0 5.0 0.00 0.00 0.00 54 1005.9
20260508223913 50 60 3.0 5.0 0.00 0.00 0.00 57 1005.9
20260508223412 50 77 1.0 5.0 0.00 0.00 0.00 56 1005.9
20260508222911 50 81 3.0 7.0 0.00 0.00 0.00 57 1006.1
20260508222413 49 77 3.0 7.0 0.00 0.00 0.00 55 1006.1
20260508221911 50 59 3.0 7.0 0.00 0.00 0.00 57 1006.1
20260508220412 50 38 3.0 5.0 0.00 0.00 0.00 54 1006.2
20260508215912 50 38 3.0 5.0 0.00 0.00 0.00 52 1006.2
20260508215413 50 36 4.0 7.0 0.00 0.00 0.00 53 1006.2
20260508214413 50 60 4.0 8.0 0.00 0.00 0.00 55 1006.3
20260508213912 50 66 3.0 7.0 0.00 0.00 0.00 54 1006.3
20260508213413 50 45 3.0 5.0 0.00 0.00 0.00 53 1006.3
20260508212911 50 33 3.0 6.0 0.00 0.00 0.00 55 1006.4
20260508212412 50 80 2.0 6.0 0.00 0.00 0.00 58 1006.3
20260508211413 50 37 3.0 10.0 0.00 0.00 0.00 54 1006.4
20260508210911 50 81 3.0 7.0 0.00 0.00 0.00 55 1006.5
20260508210413 50 54 4.0 7.0 0.00 0.00 0.00 55 1006.5
20260508205913 50 61 4.0 6.0 0.00 0.00 0.00 54 1006.6
20260508205413 49 45 4.0 7.0 0.00 0.00 0.00 56 1006.6
20260508204915 50 66 5.0 7.0 0.00 0.00 0.00 56 1006.6
20260508204410 50 65 4.0 8.0 0.00 0.00 0.00 58 1006.7
20260508203911 50 49 5.0 7.0 0.00 0.00 0.00 56 1006.6
20260508203412 50 67 5.0 8.0 0.00 0.00 0.00 57 1006.7
20260508202914 50 50 3.0 7.0 0.00 0.00 0.00 56 1006.7
20260508202413 50 51 5.0 8.0 0.00 0.00 0.00 56 1006.8
20260508201910 50 87 3.0 10.0 0.00 0.00 0.00 55 1006.8
20260508201411 50 65 4.0 9.0 0.00 0.00 0.00 58 1006.8